This demonstration page uses our WeatherBlox Daily Observations layout. Learn more.

Left ArrowRight Arrow

40.92945, -100.16068

Hourly Observations for November 9, 2020

Temp ( °F °C ) Dew Point ( °F °C ) Humidity (%) Winds ( mph kmh ) Pressure ( in mb ) Visibility ( mi km ) Precip ( " mm )
12:15 am 00:15 Partly Cloudy 61 15.9 55 12.5 80 80 S 22 35 29.64 1004 10 16.0934 0 0
12:35 am 00:35 Mostly Cloudy 60 15.3 55 13 86 86 S 22 35 29.63 1004 4 6.43736 0.18 4.572
12:55 am 00:55 Mostly Cloudy 59 15.2 55 12.8 86 86 S 22 35 29.62 1003 10 16.0934 0.21 5.334
1:15 am 01:15 Mostly Cloudy 60 15.3 55 12.8 85 85 S 24 39 29.62 1003 10 16.0934 0 0
1:35 am 01:35 Mostly Cloudy 60 15.3 55 12.8 85 85 S 26 43 29.61 1003 10 16.0934 0 0
1:55 am 01:55 Mostly Cloudy 60 15.6 55 12.8 84 84 S 26 43 29.6 1002 10 16.0934 0 0
2:15 am 02:15 Mostly Cloudy 60 15.6 55 13 85 85 S 25 41 29.61 1003 10 16.0934 0.01 0.254
2:35 am 02:35 Mostly Cloudy 60 15.4 55 12.9 85 85 S 25 41 29.61 1003 10 16.0934 0.01 0.254
2:55 am 02:55 Partly Cloudy 60 15.5 55 13 85 85 S 24 39 29.61 1003 10 16.0934 0.01 0.254
3:15 am 03:15 Mostly Cloudy 60 15.7 55 13 84 84 S 28 44 29.59 1002 10 16.0934 0 0
3:35 am 03:35 Cloudy 61 15.9 56 13.1 84 84 S 26 43 29.59 1002 10 16.0934 0 0
3:55 am 03:55 Mostly Cloudy 61 16 56 13.1 83 83 S 24 39 29.59 1002 10 16.0934 0 0
4:15 am 04:15 Cloudy 60 15.6 56 13.1 85 85 S 21 33 29.59 1002 10 16.0934 0 0
4:35 am 04:35 Cloudy with Nearby Thunderstorms 60 15.8 56 13.3 85 85 SSW 21 33 29.61 1003 10 16.0934 0 0
4:55 am 04:55 Cloudy 61 15.9 56 13.3 85 85 S 24 39 29.59 1002 10 16.0934 0 0
5:15 am 05:15 Cloudy 61 16 56 13.3 84 84 S 21 33 29.59 1002 10 16.0934 0 0
5:35 am 05:35 Cloudy 61 16.2 56 13.5 84 84 S 24 39 29.59 1002 10 16.0934 0 0
5:55 am 05:55 Cloudy 61 16.2 56 13.6 85 85 SSW 17 28 29.62 1003 10 16.0934 0 0
6:15 am 06:15 Cloudy 61 16 56 13.6 86 86 SSW 16 26 29.63 1003 10 16.0934 0 0
6:35 am 06:35 Cloudy with Light Rain 43 6.2 40 4.4 88 88 NNE 22 35 29.75 1007 10 16.0934 0 0
6:55 am 06:55 Cloudy with Light Rain 40 4.2 37 2.9 91 91 N 20 31 29.8 1009 10 16.0934 0 0
7:15 am 07:15 Cloudy 37 3 35 1.8 92 92 N 23 37 29.82 1010 10 16.0934 0 0
7:35 am 07:35 Cloudy 37 2.6 35 1.4 92 92 N 18 30 29.83 1010 10 16.0934 0 0
7:55 am 07:55 Cloudy 36 2.4 34 1.1 91 91 N 12 19 29.86 1011 10 16.0934 0 0
8:15 am 08:15 Cloudy 36 2 33 0.6 91 91 N 16 26 29.9 1012 10 16.0934 0 0
8:35 am 08:35 Cloudy 35 1.7 33 0.4 91 91 N 20 31 29.91 1013 10 16.0934 0 0
8:55 am 08:55 Cloudy 34 1.1 32 0 92 92 N 24 39 29.94 1014 7 11.26538 0 0
9:15 am 09:15 Cloudy with Mist and Fog 33 0.7 32 -0.1 94 94 N 23 37 29.95 1014 4 6.43736 0 0
9:35 am 09:35 Cloudy with Mist and Fog 33 0.6 32 0 96 96 N 21 33 29.95 1014 1.75 2.816345 0 0
9:55 am 09:55 Cloudy with Mist and Fog 33 0.6 32 0 96 96 N 14 22 29.95 1014 1.75 2.816345 0 0
10:15 am 10:15 Cloudy with Mist and Fog 33 0.7 32 -0.1 94 94 N 17 28 29.97 1015 5 8.0467 0 0
10:35 am 10:35 Cloudy with Mist and Fog 33 0.7 32 0 95 95 N 21 33 29.98 1015 2.5 4.02335 0 0
10:55 am 10:55 Cloudy with Mist and Fog 32 0 30 -1 93 93 N 24 39 30 1016 4 6.43736 0 0
11:15 am 11:15 Cloudy with Mist and Fog 32 0 30 -1.3 91 91 N 25 41 30.01 1016 4 6.43736 0 0
11:35 am 11:35 Cloudy 31 -0.3 29 -1.6 91 91 N 22 35 30.01 1016 7 11.26538 0 0
11:55 am 11:55 Cloudy 31 -0.6 28 -2.2 89 89 N 20 31 30.01 1016 10 16.0934 0 0
12:15 pm 12:15 Cloudy 31 -0.5 28 -2 90 90 N 18 30 30 1016 10 16.0934 0 0
12:35 pm 12:35 Cloudy 31 -0.6 28 -2.1 90 90 N 22 35 30 1016 10 16.0934 0 0
12:55 pm 12:55 Cloudy 31 -0.5 28 -2.1 89 89 N 17 28 30 1016 10 16.0934 0 0
1:15 pm 13:15 Cloudy 31 -0.5 28 -2.1 89 89 N 20 31 30.02 1017 10 16.0934 0 0
1:35 pm 13:35 Cloudy 31 -0.7 28 -2.4 88 88 N 17 28 30.01 1016 10 16.0934 0 0
1:55 pm 13:55 Cloudy 31 -0.5 28 -2 90 90 N 17 28 30 1016 7 11.26538 0 0
2:15 pm 14:15 Cloudy 31 -0.3 28 -2 88 88 N 17 28 30.01 1016 10 16.0934 0 0
2:35 pm 14:35 Cloudy 32 -0.2 28 -2.1 87 87 N 18 30 30.01 1016 10 16.0934 0 0
2:55 pm 14:55 Cloudy 32 0 29 -1.8 88 88 N 17 28 30.01 1016 10 16.0934 0 0
3:15 pm 15:15 Cloudy 32 -0.1 28 -2.2 86 86 N 20 31 30.01 1016 10 16.0934 0 0
3:35 pm 15:35 Cloudy 32 0 28 -2.1 86 86 N 15 24 30.02 1016 10 16.0934 0 0
3:55 pm 15:55 Cloudy 32 0 28 -2.1 86 86 N 15 24 30.03 1017 10 16.0934 0 0
4:15 pm 16:15 Cloudy 32 0 28 -2.1 86 86 N 13 20 30.04 1017 10 16.0934 0 0
4:35 pm 16:35 Cloudy 32 0 28 -2.1 86 86 N 17 28 30.04 1017 10 16.0934 0 0
4:55 pm 16:55 Cloudy 32 0 27 -2.6 83 83 N 15 24 30.03 1017 10 16.0934 0 0
5:15 pm 17:15 Cloudy 32 0 27 -2.9 81 81 N 17 28 30.04 1017 10 16.0934 0 0
5:35 pm 17:35 Cloudy 32 0 26 -3.1 80 80 N 14 22 30.05 1017 10 16.0934 0 0
5:55 pm 17:55 Cloudy 32 0 27 -2.9 81 81 N 14 22 30.03 1017 10 16.0934 0 0
6:15 pm 18:15 Cloudy 32 0 26 -3.1 80 80 N 14 22 30.03 1017 10 16.0934 0 0
6:35 pm 18:35 Cloudy 32 -0.2 26 -3.1 81 81 N 15 24 30.03 1017 10 16.0934 0 0
6:55 pm 18:55 Cloudy 31 -0.5 26 -3.6 80 80 N 13 20 30.03 1017 10 16.0934 0 0
7:15 pm 19:15 Cloudy 31 -0.5 26 -3.6 80 80 N 16 26 30.02 1017 10 16.0934 0 0
7:35 pm 19:35 Cloudy 31 -0.5 26 -3.6 80 80 N 9 15 30.03 1017 10 16.0934 0 0
7:55 pm 19:55 Cloudy 31 -0.5 25 -4 77 77 N 16 26 30.01 1016 10 16.0934 0 0
8:15 pm 20:15 Cloudy 31 -0.5 24 -4.6 74 74 NNE 13 20 30.03 1017 10 16.0934 0 0
8:35 pm 20:35 Cloudy 31 -0.5 23 -4.8 73 73 NNE 10 17 30.01 1016 10 16.0934 0 0
8:55 pm 20:55 Cloudy 31 -0.5 23 -4.9 72 72 NNE 12 19 30.02 1017 10 16.0934 0 0
9:15 pm 21:15 Cloudy 31 -0.5 24 -4.5 75 75 N 12 19 30.04 1017 10 16.0934 0 0
9:35 pm 21:35 Cloudy 31 -0.5 23 -4.8 73 73 N 15 24 30.05 1018 10 16.0934 0 0
9:55 pm 21:55 Cloudy 31 -0.7 22 -5.8 69 69 N 12 19 30.06 1018 10 16.0934 0 0
10:15 pm 22:15 Cloudy 31 -0.8 22 -5.8 69 69 N 15 24 30.06 1018 10 16.0934 0 0
10:35 pm 22:35 Cloudy 31 -0.8 22 -5.5 71 71 N 14 22 30.05 1018 10 16.0934 0 0
10:55 pm 22:55 Cloudy 30 -1 22 -5.5 72 72 N 10 17 30.06 1018 10 16.0934 0 0
11:15 pm 23:15 Cloudy 30 -1.1 22 -5.3 73 73 N 14 22 30.04 1017 10 16.0934 0 0
11:35 pm 23:35 Cloudy 30 -1.2 22 -5.3 74 74 N 9 15 30.03 1017 10 16.0934 0 0
11:55 pm 23:55 Cloudy 30 -1.2 22 -5.8 71 71 N 10 17 30.04 1017 10 16.0934 0 0

Powered by AerisWeather